[[{"header":{"parameterUnit":"m.s-1","parameterCategory":1,"la1":30.2991,"la2":30.254,"lo1":-89.0895,"lo2":-89.0444,"dy":0.0017,"dx":0.0017,"nx":28,"ny":28,"refTime":"2025-04-05T03:00:00:Z","depth":0,"parameterNumber":2,"parameterNumberName":"U-component_of_WINDS"},"data":[0,0,0,0,0,0,0,0,0,0,0,0,0,0,0,0,0,0,0,0,0,0,0,0,0,0,0,0,0,0,0,0,0,0,0,0,0,0,0,0,0,0,0,0,0,0,0,0,0,0,0,0,0,0,0,0,0,0,-5.0767,-5.0769,0,-5.0891,-5.0892,-5.0894,-5.0918,-5.0917,-5.0916,-5.0915,-5.1039,-5.1044,-5.1048,0,0,0,0,0,0,0,0,0,0,0,0,0,-5.0551,-5.0555,-5.0767,-5.0769,-5.077,-5.0891,-5.0892,-5.0894,-5.0918,-5.0917,-5.0916,-5.0914,-5.1038,-5.1043,-5.1048,0,0,0,0,0,0,0,0,0,0,0,0,0,-5.0657,-5.0556,-5.0767,-5.0797,-5.0801,-5.089,-5.0892,-5.0894,-5.0918,-5.0917,-5.0915,-5.0914,-5.1036,-5.1043,-5.1049,-5.1117,0,0,-5.1068,-5.1071,0,0,0,0,0,0,0,0,-5.0651,-5.0665,-5.0791,-5.0795,-5.0799,-5.0887,-5.0862,-5.0969,-5.0918,-5.0873,-5.0915,-5.0913,-5.099,-5.1,-5.1026,-5.1123,-5.1128,-5.1069,-5.1072,-5.1075,-5.1077,0,0,0,0,0,0,0,-5.0644,-5.066,-5.0816,-5.0793,-5.0798,-5.0804,-5.0817,-5.0882,-5.0938,-5.0877,-5.0879,-5.0894,-5.0992,-5.102,-5.1029,-5.113,-5.1068,-5.1074,-5.1078,-5.108,-5.1288,-5.129,0,0,0,0,0,0,-5.0631,-5.0653,-5.0812,-5.082,-5.072,-5.0809,-5.0824,-5.0861,-5.0938,-5.0948,-5.0895,-5.0894,-5.101,-5.1022,-5.1034,-5.1118,-5.1075,-5.1081,-5.1085,-5.1287,-5.1289,-5.1291,0,0,0,0,0,0,-5.0626,-5.0645,-5.0807,-5.0737,-5.0758,-5.0814,-5.0855,-5.0864,-5.0892,-5.0951,-5.0961,-5.0913,-5.1009,-5.1025,-5.1096,-5.1122,-5.1084,-5.109,-5.1285,-5.1287,-5.129,-5.1286,0,0,0,0,0,0,-5.062,-5.0643,-5.067,-5.0738,-5.0762,-5.0867,-5.0857,-5.0867,-5.0903,-5.0904,-5.0971,-5.0981,-5.1009,-5.1087,-5.1102,-5.113,-5.1095,-5.1282,-5.1286,-5.1289,-5.1284,-5.1288,-5.1292,0,0,0,0,0,-5.0612,-5.0663,-5.0671,-5.069,-5.0796,-5.0869,-5.0883,-5.0915,-5.0905,-5.0932,-5.097,-5.0978,-5.1118,-5.1094,-5.1112,-5.1142,-5.1281,-5.1285,-5.1289,-5.1282,-5.1287,-5.1292,0,0,0,0,0,0,-5.0596,-5.0673,-5.0682,-5.0756,-5.0806,-5.0873,-5.0907,-5.092,-5.0973,-5.0971,-5.1009,-5.1024,-5.1093,-5.1125,-5.1097,-5.1212,-5.1199,-5.1206,-5.1188,-5.1193,-5.1197,-5.1186,-5.11,0,0,0,0,0,-5.0601,-5.0654,-5.0719,-5.0778,-5.0803,-5.0851,-5.0884,-5.0905,-5.0958,-5.0978,-5.1022,-5.1072,-5.1127,-5.1162,-5.1216,-5.129,-5.1305,-5.132,-5.1324,-5.1327,-5.1332,-5.1373,-5.138,-5.1303,-5.1303,-5.1303,0,0,-5.0612,-5.0661,-5.0691,-5.0776,-5.0817,-5.087,-5.0868,-5.0925,-5.0965,-5.0987,-5.1056,-5.109,-5.1149,-5.1222,-5.1256,-5.125,-5.1357,-5.1332,-5.1334,-5.1337,-5.1378,-5.1385,-5.1391,-5.1306,-5.1305,-5.1305,0,0,-5.0658,-5.0701,-5.0755,-5.0797,-5.0859,-5.0891,-5.0904,-5.097,-5.0993,-5.1064,-5.1082,-5.113,-5.1225,-5.1266,-5.1299,-5.1363,-5.1373,-5.138,-5.1399,-5.1439,-5.1445,-5.145,-5.1472,-5.1479,-5.1386,-5.1386,-5.1386,0,-5.0663,-5.0745,-5.0781,-5.0838,-5.0874,-5.0898,-5.0953,-5.0991,-5.1068,-5.1092,-5.1086,-5.1205,-5.1247,-5.1329,-5.1345,-5.1372,-5.1387,-5.1371,-5.1441,-5.1447,-5.1453,-5.1473,-5.1481,-5.1386,-5.1386,-5.1386,-5.1386,0,-5.0748,-5.0804,-5.0841,-5.0914,-5.0956,-5.1011,-5.1055,-5.1092,-5.1111,-5.1143,-5.1215,-5.1266,-5.1331,-5.1353,-5.1371,-5.1438,-5.1433,-5.1434,-5.142,-5.146,-5.148,-5.1488,-5.1387,-5.1387,-5.1387,-5.1386,0,0,-5.0784,-5.0879,-5.0892,-5.0925,-5.0997,-5.1041,-5.1098,-5.1162,-5.1193,-5.1246,-5.1293,-5.1374,-5.1375,-5.1413,-5.1437,-5.1472,-5.1518,-5.1468,-5.147,-5.1474,-5.1593,-5.159,-5.1599,-5.1526,-5.1528,-5.1529,-5.1588,0,-5.0838,-5.0939,-5.0974,-5.1058,-5.111,-5.1135,-5.1185,-5.1234,-5.1267,-5.1316,-5.1352,-5.1408,-5.1407,-5.143,-5.1466,-5.1504,-5.1542,-5.1501,-5.1569,-5.1571,-5.1551,-5.161,-5.1607,-5.1659,-5.1596,-5.1597,-5.1598,0,-5.0913,-5.0967,-5.1056,-5.1122,-5.1145,-5.1189,-5.125,-5.1298,-5.1354,-5.1376,-5.1419,-5.144,-5.15,-5.1486,-5.1569,-5.154,-5.1571,-5.1595,-5.1598,-5.1603,-5.1585,-5.1614,-5.1677,-5.1684,-5.1611,-5.161,-5.1609,0,-5.0928,-5.1024,-5.109,-5.1118,-5.1197,-5.1227,-5.1261,-5.1316,-5.1353,-5.1407,-5.1431,-5.1492,-5.1524,-5.1571,-5.1608,-5.1594,-5.1687,-5.1676,-5.1705,-5.1704,-5.1721,-5.1719,-5.1787,-5.1745,-5.1745,-5.1745,-5.1745,0,-5.0982,-5.1035,-5.1097,-5.1137,-5.1198,-5.1238,-5.1297,-5.1333,-5.1382,-5.1429,-5.1456,-5.1499,-5.1547,-5.1597,-5.1627,-5.169,-5.1705,-5.1724,-5.173,-5.172,-5.1717,-5.1738,-5.1734,-5.1747,-5.1746,-5.1746,-5.1746,0,-5.1008,-5.1052,-5.1125,-5.1194,-5.1213,-5.1254,-5.1313,-5.1353,-5.1388,-5.1447,-5.1464,-5.1518,-5.1579,-5.1622,-5.1699,-5.1719,-5.1787,-5.1795,-5.1767,-5.177,-5.1796,-5.1792,-5.1878,-5.1891,-5.1842,-5.1843,-5.1843,0,-5.1038,-5.108,-5.1154,-5.1188,-5.1222,-5.1276,-5.1314,-5.1356,-5.1394,-5.1463,-5.1494,-5.1557,-5.1608,-5.1704,-5.175,-5.181,-5.1818,-5.1844,-5.1827,-5.1815,-5.1816,-5.1812,-5.1816,-5.1845,-5.1846,-5.1846,-5.1846,0,-5.1087,-5.1107,-5.1161,-5.1222,-5.1266,-5.1317,-5.1367,-5.1393,-5.1445,-5.1486,-5.1549,-5.1589,-5.1669,-5.173,-5.1795,-5.183,-5.1846,-5.1852,-5.1861,-5.1849,-5.1831,-5.184,-5.1772,-5.1849,-5.1848,-5.1848,-5.1848,-5.1848,-5.1115,-5.1153,-5.1211,-5.127,-5.1313,-5.1359,-5.14,-5.1441,-5.1494,-5.1562,-5.1585,-5.1649,-5.1706,-5.1794,-5.183,-5.1881,-5.1879,-5.1894,-5.1897,-5.1899,-5.1898,-5.1825,-5.1893,-5.1893,-5.1893,-5.1893,-5.1893,0,-5.1163,-5.1203,-5.1256,-5.1326,-5.1373,-5.1386,-5.1443,-5.1481,-5.1537,-5.1589,-5.164,-5.1712,-5.1772,-5.1824,-5.1886,-5.1917,-5.1926,-5.1931,-5.1928,-5.1936,-5.1896,-5.1881,-5.1923,-5.1923,-5.1923,-5.1923,-5.1923,-5.1923,-5.1194,-5.1258,-5.1285,-5.1372,-5.1411,-5.1474,-5.1505,-5.1549,-5.159,-5.1669,-5.1719,-5.1753,-5.1805,-5.1872,-5.1928,-5.1942,-5.1962,-5.1966,-5.1981,-5.1942,-5.1939,-5.1935,-5.1921,-5.197,-5.1971,-5.2016,-5.2016,-5.2017]},{"header":{"parameterUnit":"m.s-1","parameterCategory":1,"la1":30.2991,"la2":30.254,"lo1":-89.0895,"lo2":-89.0444,"dy":0.0017,"dx":0.0017,"nx":28,"ny":28,"refTime":"2025-04-05T03:00:00:Z","depth":0,"parameterNumber":3,"parameterNumberName":"V-component_of_WINDS"},"data":[0,0,0,0,0,0,0,0,0,0,0,0,0,0,0,0,0,0,0,0,0,0,0,0,0,0,0,0,0,0,0,0,0,0,0,0,0,0,0,0,0,0,0,0,0,0,0,0,0,0,0,0,0,0,0,0,0,0,5.5704,5.5704,0,5.57,5.57,5.57,5.572,5.572,5.5721,5.5722,5.5713,5.5712,5.5711,0,0,0,0,0,0,0,0,0,0,0,0,0,5.5725,5.5725,5.5704,5.5704,5.5704,5.57,5.57,5.57,5.572,5.572,5.5721,5.5722,5.5713,5.5712,5.5711,0,0,0,0,0,0,0,0,0,0,0,0,0,5.5718,5.5725,5.5704,5.5713,5.5714,5.57,5.57,5.57,5.572,5.572,5.5721,5.5722,5.5713,5.5712,5.5711,5.5686,0,0,5.5708,5.5707,0,0,0,0,0,0,0,0,5.5718,5.5717,5.5712,5.5713,5.5714,5.5711,5.5704,5.5695,5.5719,5.5717,5.5722,5.5723,5.5711,5.571,5.5708,5.5686,5.5686,5.5708,5.5707,5.5706,5.5706,0,0,0,0,0,0,0,5.5719,5.5718,5.5702,5.5712,5.5713,5.5717,5.5717,5.5703,5.5709,5.5718,5.5719,5.5719,5.5712,5.5709,5.5708,5.5686,5.5708,5.5707,5.5706,5.5705,5.5646,5.5645,0,0,0,0,0,0,5.5719,5.5718,5.5702,5.5702,5.5718,5.5716,5.5716,5.5711,5.571,5.571,5.5718,5.572,5.571,5.5709,5.5707,5.568,5.5706,5.5705,5.5705,5.5647,5.5646,5.5645,0,0,0,0,0,0,5.5719,5.5717,5.5703,5.571,5.5709,5.5714,5.5709,5.5711,5.5708,5.571,5.5711,5.5714,5.5711,5.5709,5.5692,5.568,5.5705,5.5704,5.5648,5.5646,5.5645,5.5624,0,0,0,0,0,0,5.572,5.5717,5.5708,5.571,5.5708,5.5688,5.5708,5.571,5.5706,5.5708,5.5706,5.5706,5.5711,5.5694,5.5691,5.5679,5.5703,5.5649,5.5647,5.5645,5.5626,5.5622,5.5619,0,0,0,0,0,5.572,5.5701,5.5708,5.5706,5.5698,5.5688,5.5687,5.5694,5.5705,5.5696,5.5698,5.5707,5.5682,5.5692,5.5689,5.5676,5.565,5.5648,5.5646,5.5628,5.5623,5.5619,0,0,0,0,0,0,5.5696,5.5702,5.5709,5.569,5.5689,5.5691,5.568,5.5689,5.5683,5.5685,5.5693,5.5692,5.5674,5.5673,5.5685,5.5653,5.5667,5.5665,5.5655,5.5651,5.5647,5.5648,5.5702,0,0,0,0,0,5.5689,5.5681,5.5686,5.5669,5.5668,5.5674,5.567,5.5676,5.5674,5.5673,5.5673,5.567,5.5662,5.5656,5.5648,5.5626,5.5626,5.5616,5.5612,5.5609,5.5607,5.5597,5.5593,5.5638,5.5638,5.5638,0,0,5.5673,5.5675,5.5669,5.5664,5.5663,5.5655,5.5673,5.5663,5.5657,5.5671,5.5656,5.5656,5.5653,5.5634,5.5626,5.5633,5.5595,5.5607,5.5605,5.5604,5.5595,5.5591,5.5587,5.5637,5.5637,5.5637,0,0,5.564,5.5641,5.5628,5.5627,5.5627,5.5632,5.5629,5.563,5.5632,5.5618,5.5629,5.5621,5.5606,5.5604,5.5601,5.557,5.5578,5.5567,5.5549,5.5539,5.5536,5.5533,5.5523,5.5519,5.5564,5.5564,5.5564,0,5.562,5.5609,5.5619,5.5609,5.5607,5.5621,5.5608,5.5607,5.5603,5.5601,5.5609,5.5593,5.5591,5.5573,5.5566,5.5563,5.556,5.5567,5.5536,5.5533,5.553,5.5521,5.5517,5.5563,5.5563,5.5563,5.5563,0,5.5585,5.5577,5.5566,5.5566,5.5562,5.555,5.5558,5.5553,5.5559,5.5563,5.5549,5.5548,5.5542,5.5538,5.5543,5.5521,5.5526,5.5534,5.5549,5.5524,5.5516,5.5512,5.5561,5.5562,5.5562,5.5562,0,0,5.5536,5.5543,5.5539,5.554,5.5541,5.5535,5.5524,5.552,5.5516,5.5513,5.5504,5.5492,5.5502,5.5498,5.5503,5.5495,5.5472,5.5505,5.5505,5.55,5.545,5.5444,5.5439,5.5478,5.5477,5.5477,5.545,0,5.5506,5.5489,5.5499,5.548,5.5474,5.5489,5.5479,5.5479,5.5482,5.5477,5.548,5.5472,5.5484,5.5482,5.5474,5.5477,5.5462,5.5479,5.547,5.547,5.5472,5.5435,5.5428,5.5403,5.5447,5.5446,5.5446,0,5.5468,5.5466,5.5448,5.5453,5.5451,5.5442,5.544,5.5434,5.5435,5.5438,5.5435,5.5443,5.5433,5.5447,5.5433,5.5444,5.5441,5.5442,5.5441,5.5441,5.5457,5.5435,5.5395,5.5392,5.5441,5.5441,5.5441,0,5.5436,5.5429,5.5418,5.5418,5.5423,5.5417,5.5418,5.542,5.5417,5.5415,5.5413,5.5409,5.5406,5.5402,5.5409,5.5419,5.5395,5.5409,5.5397,5.5397,5.5392,5.5392,5.5352,5.5388,5.5388,5.5388,5.5388,0,5.5402,5.539,5.5404,5.5397,5.5385,5.5396,5.5383,5.5386,5.5388,5.5381,5.5393,5.5386,5.5395,5.5389,5.5394,5.5383,5.5381,5.5383,5.5385,5.5383,5.5383,5.5382,5.5384,5.5387,5.5387,5.5387,5.5388,0,5.5364,5.5373,5.5362,5.5369,5.537,5.5361,5.5366,5.536,5.5365,5.5357,5.5356,5.5363,5.5357,5.5364,5.5357,5.5361,5.5346,5.5349,5.5346,5.5348,5.5336,5.5338,5.5295,5.529,5.5328,5.5327,5.5327,0,5.5342,5.5334,5.5341,5.5339,5.534,5.5335,5.5334,5.5344,5.5341,5.5343,5.5336,5.5332,5.5329,5.5319,5.5323,5.5319,5.5323,5.5309,5.5323,5.5322,5.5325,5.5326,5.5326,5.5306,5.5305,5.5305,5.5305,0,5.5303,5.5308,5.5306,5.5306,5.5304,5.5303,5.5304,5.5301,5.5312,5.5308,5.5304,5.5302,5.5297,5.5293,5.529,5.5291,5.53,5.5301,5.5298,5.5296,5.5295,5.5297,5.534,5.5301,5.5302,5.5302,5.5302,5.5302,5.5273,5.5268,5.5272,5.527,5.5272,5.5272,5.5268,5.5273,5.527,5.5268,5.5274,5.5268,5.527,5.5268,5.5268,5.5264,5.527,5.5265,5.5265,5.5264,5.5263,5.5296,5.5263,5.5263,5.5263,5.5263,5.5263,0,5.5236,5.524,5.5238,5.5239,5.5237,5.5247,5.5249,5.5246,5.5242,5.5243,5.5241,5.5237,5.5233,5.5238,5.5235,5.5231,5.5235,5.523,5.5231,5.5231,5.5256,5.526,5.5227,5.5227,5.5227,5.5227,5.5227,5.5227,5.5216,5.5208,5.5214,5.5207,5.5211,5.5207,5.5207,5.5208,5.5209,5.5205,5.5202,5.5206,5.5209,5.5207,5.5205,5.5206,5.5205,5.5199,5.5202,5.5225,5.5229,5.5232,5.5236,5.5198,5.5198,5.5177,5.5177,5.5176]}]]